GFSNGP_con_lsi_336.txt.gz
Lid_Strength_Index
12 10 10 11 11 11 13 13 15 13 13 11 10 10 10 10 9 9 8 7 7 7 6 6 4 3 3 2 2 2 4 4 3 3 4 6 7 7 7 8 7 7 7 7
12 10 10 12 11 11 11 11 12 13 13 11 9 9 10 10 9 8 8 7 6 5 5 5 3 3 2 2 3 3 4 4 2 3 5 6 7 8 8 8 9 9 9 8
16 11 12 14 12 11 11 11 11 13 13 11 10 9 10 9 9 8 7 6 5 5 5 3 3 3 3 3 3 5 4 3 4 5 5 7 8 8 9 8 7 8 8 9
15 14 19 12 9 9 11 11 11 11 10 10 10 9 9 8 8 7 6 5 5 4 4 3 4 3 2 4 5 5 4 6 6 6 6 6 7 7 7 7 8 8 8 8
16 16 14 12 10 10 12 12 10 10 10 9 9 9 9 7 7 6 5 5 4 4 3 3 3 3 3 4 5 5 7 7 7 6 6 4 6 6 6 8 9 9 9 9
14 17 19 12 8 8 8 14 9 9 10 10 10 13 11 8 6 5 5 4 4 3 3 2 4 3 4 5 5 7 7 7 7 6 6 5 7 8 8 8 9 9 9 10
15 16 14 10 9 7 15 13 10 9 10 10 11 10 9 7 6 5 5 4 4 4 4 4 4 3 4 5 6 6 7 7 7 7 7 7 6 6 8 9 10 10 9 9
14 16 17 9 9 11 10 10 9 10 9 9 9 8 7 6 6 5 6 5 5 5 5 4 3 2 5 6 6 6 7 7 8 8 8 8 8 8 8 9 9 9 9 8
13 13 10 9 9 9 9 9 10 10 8 8 8 8 7 7 6 6 5 4 4 5 4 3 2 2 6 6 6 7 7 8 8 8 9 9 9 9 9 9 9 9 8 8
12 11 10 9 8 8 8 9 8 8 8 8 8 8 7 7 6 6 5 5 4 4 5 5 3 5 5 5 7 8 8 8 8 8 9 9 9 9 9 9 8 8 8 8
12 11 9 9 8 8 8 8 8 8 8 8 8 8 7 7 6 6 5 5 4 5 5 6 4 4 4 5 7 7 7 7 7 7 8 9 9 8 8 7 9 8 8 8
11 10 9 10 8 7 8 8 8 8 8 7 7 8 6 6 6 6 5 5 5 6 6 5 4 4 4 5 6 7 7 7 7 7 7 8 8 8 8 8 8 8 9 9
9 8 9 8 7 6 8 8 8 8 8 8 7 6 6 5 5 5 6 6 6 6 5 3 3 3 3 4 5 6 7 6 7 7 7 7 7 8 8 7 7 8 9 9
7 7 8 7 8 8 8 8 7 7 7 7 6 5 5 5 5 5 6 6 5 5 2 2 3 4 4 4 5 5 5 7 5 6 6 7 7 7 7 8 8 7 7 9
7 7 8 7 8 9 8 8 8 8 7 7 6 6 5 5 5 6 5 5 5 4 2 3 4 4 3 5 6 5 5 6 7 6 6 7 7 7 8 7 7 6 7 7
7 7 7 8 8 9 9 9 9 8 7 6 6 6 5 5 5 5 4 4 4 3 3 4 5 5 5 6 7 6 7 8 8 7 7 6 7 7 7 7 7 7 7 7
8 9 8 8 9 10 9 9 8 7 6 6 6 6 5 6 6 6 6 6 6 6 5 5 6 5 6 6 7 6 7 7 10 6 6 6 7 7 7 7 7 7 7 8
7 7 7 8 9 10 9 8 8 7 7 6 6 6 7 7 8 8 7 7 7 7 7 6 6 6 7 7 7 7 7 7 7 6 6 6 6 6 7 7 7 7 7 7
7 7 7 8 9 10 9 8 9 7 6 6 6 6 6 8 8 8 8 8 8 8 8 7 8 7 7 7 7 7 7 7 6 6 6 8 6 6 6 6 6 6 6 6
7 7 8 8 9 9 8 7 7 7 7 6 6 6 7 8 8 8 8 9 9 9 8 8 7 7 7 7 8 6 6 7 7 7 7 7 7 6 6 8 6 6 6 7
8 8 8 9 9 8 7 7 7 7 7 6 6 7 8 8 8 8 9 9 8 9 8 8 7 7 7 7 6 6 6 6 7 7 7 7 7 7 6 6 6 6 6 7
8 9 9 9 9 8 7 7 7 7 7 6 6 7 8 8 8 7 8 9 9 13 9 8 8 10 8 10 6 6 6 6 7 7 7 7 7 7 7 7 7 7 6 6
9 9 9 9 10 8 7 7 7 7 7 6 6 8 8 8 7 8 8 8 8 11 8 9 13 14 12 6 6 6 7 7 7 7 7 7 7 7 7 7 7 7 7 6
9 9 9 8 8 8 8 7 7 7 7 7 7 7 6 7 7 7 8 12 13 11 9 10 11 13 12 8 7 6 6 7 7 7 7 9 7 7 7 7 7 6 6 7
9 9 9 8 9 8 8 7 7 8 8 8 6 6 6 6 6 6 7 9 13 10 8 13 13 13 9 9 9 8 7 7 7 7 7 7 7 7 7 7 7 7 7 8
10 10 9 8 8 7 7 7 8 7 7 8 7 7 6 5 6 6 7 9 8 10 8 8 8 8 8 9 9 8 7 6 7 7 7 7 7 7 7 7 8 8 9 9
10 10 10 10 9 7 7 7 8 8 8 7 7 6 6 6 6 6 8 7 7 8 8 8 8 10 9 9 9 8 8 7 9 7 7 7 7 8 8 8 9 9 9 9

GFSNGP_con_lsi_339.txt.gz
Lid_Strength_Index
9 9 9 10 10 9 11 11 12 12 11 9 8 7 6 6 5 5 5 4 4 3 3 2 2 2 2 1 2 2 2 2 3 5 5 6 7 7 7 7 7 6 6 5
11 9 9 10 9 9 10 10 10 10 10 7 6 5 6 6 6 5 4 4 4 3 3 3 3 2 2 1 2 3 3 3 4 5 6 6 6 4 4 5 5 5 5 5
13 10 10 12 11 10 9 9 9 11 8 6 7 7 6 6 5 5 4 4 4 3 3 2 2 1 2 2 3 4 4 5 4 3 5 5 5 5 5 5 5 5 5 6
12 11 16 10 7 7 9 9 8 7 7 7 7 6 5 5 5 4 4 4 3 3 3 2 1 1 2 3 4 5 5 4 3 3 5 5 5 7 6 6 6 6 6 6
12 13 12 11 9 9 9 10 7 8 7 7 6 6 5 4 3 3 3 3 3 3 3 2 1 1 3 4 5 5 4 3 4 4 5 6 7 6 5 6 6 6 5 6
12 14 16 11 7 6 6 12 7 7 7 7 6 9 7 4 4 3 3 3 3 3 2 1 1 1 4 6 4 5 5 5 5 5 6 6 6 5 5 5 6 6 6 6
12 13 12 7 7 5 12 11 7 7 7 6 7 6 5 4 4 3 3 2 3 4 3 2 2 3 5 4 4 4 5 6 5 4 5 6 5 5 5 6 6 6 6 6
11 12 15 7 6 9 7 6 6 6 6 6 5 5 5 5 5 5 5 4 4 4 4 3 2 3 3 4 4 5 5 5 5 5 5 5 5 6 6 6 6 7 7 6
10 10 7 6 6 5 5 5 6 6 5 6 6 6 6 6 7 6 5 6 4 4 3 3 2 1 3 4 4 5 5 5 5 5 5 5 6 6 6 6 7 7 7 7
9 8 7 6 5 5 4 5 5 6 6 5 6 6 6 7 7 6 6 5 3 3 3 4 2 2 3 4 5 5 6 6 5 5 5 5 4 5 6 7 7 7 7 7
9 7 6 6 5 5 5 6 6 6 6 6 5 6 6 6 6 5 5 4 3 4 4 3 2 2 3 4 5 6 5 6 5 5 5 5 5 5 6 7 8 8 7 7
9 6 6 6 5 5 5 7 6 6 6 5 6 6 5 5 5 4 4 4 4 4 2 2 2 2 2 3 4 5 6 6 6 6 6 6 5 4 7 8 9 10 10 8
6 5 5 5 4 5 6 6 6 6 6 6 5 5 5 5 4 4 3 4 5 4 2 2 2 2 2 2 2 4 5 5 5 6 6 6 5 5 6 5 8 9 9 9
4 4 5 5 5 5 6 6 6 5 5 5 5 5 5 5 4 4 4 3 2 2 2 2 2 2 1 1 2 3 3 6 5 5 5 5 5 4 4 6 6 6 7 8
5 5 4 4 5 6 6 6 6 6 6 6 5 5 4 5 4 4 3 2 1 2 2 2 2 2 2 2 3 3 4 4 5 5 5 5 4 4 4 4 6 5 4 6
4 4 4 5 6 6 7 7 7 7 6 6 5 5 4 4 4 4 4 3 3 3 3 3 3 3 3 3 3 4 4 7 7 5 5 4 4 4 5 5 5 5 6 7
5 6 5 6 6 7 7 7 6 6 6 6 5 4 4 4 5 5 4 4 3 4 3 3 4 3 3 3 3 4 5 5 9 5 5 5 5 5 5 5 6 5 5 6
4 4 4 4 5 6 7 7 7 6 6 6 5 4 5 5 5 5 5 4 4 4 4 4 4 4 4 3 4 4 4 5 5 5 5 5 5 4 5 5 5 5 4 5
4 5 5 5 6 6 7 8 6 6 6 5 5 5 5 5 5 5 4 5 5 5 5 5 7 5 4 6 5 5 5 5 5 5 5 7 5 5 5 5 4 5 5 5
5 5 5 6 6 6 7 7 6 6 5 5 5 5 5 5 5 5 4 5 5 5 5 5 4 5 5 5 7 5 5 5 5 6 5 5 5 5 5 7 5 5 5 6
6 6 6 6 6 6 7 6 6 6 5 5 5 5 5 5 5 4 4 5 5 5 5 7 5 5 6 7 6 5 5 5 6 6 6 6 5 5 5 5 5 5 4 3
6 6 6 6 6 6 7 6 6 6 6 6 5 5 5 5 5 5 4 4 4 12 5 5 5 10 7 11 6 6 6 6 6 6 6 6 6 6 6 5 5 6 5 5
6 6 6 6 6 6 7 6 6 6 6 6 5 5 5 4 4 4 5 5 4 8 4 4 11 13 12 5 6 7 7 6 6 7 6 6 6 6 6 6 6 6 6 6
6 6 6 6 6 7 8 7 6 6 6 6 5 4 5 6 5 4 4 10 12 9 5 7 9 13 11 5 5 6 6 6 6 6 6 9 6 6 6 6 6 6 7 7
6 6 6 6 7 7 7 6 6 6 6 5 5 5 5 5 5 5 5 6 12 7 4 13 13 12 5 5 5 5 6 6 6 6 6 6 6 6 6 6 7 7 7 7
6 6 6 6 6 6 7 6 6 5 6 6 6 5 5 4 5 5 4 7 5 8 4 4 4 4 5 5 5 5 5 6 6 6 6 6 6 6 6 7 7 8 8 7
6 8 6 6 6 6 7 6 6 7 6 6 6 5 5 5 5 5 7 4 4 4 4 4 4 6 5 5 5 5 5 6 9 6 6 6 6 7 8 8 7 7 7 6

GFSNGP_con_lsi_342.txt.gz
Lid_Strength_Index
8 8 8 8 8 8 9 9 11 10 10 8 7 6 5 4 4 4 3 3 3 3 2 2 2 1 1 1 1 2 2 3 3 4 4 4 3 3 2 2 3 4 4 4
9 8 8 9 8 8 8 9 9 9 9 6 5 4 5 4 4 4 4 3 3 2 2 2 2 1 2 1 3 2 2 1 2 3 3 4 4 3 3 4 4 5 5 5
11 8 9 11 10 9 8 7 8 10 8 5 6 5 5 4 4 4 4 4 3 3 3 2 1 1 2 3 4 2 1 1 3 3 4 4 3 3 4 5 5 5 5 5
11 10 14 10 6 7 8 7 6 7 6 5 5 4 4 3 4 4 4 3 3 3 2 1 1 1 4 4 3 2 2 3 3 4 5 5 3 4 4 4 5 5 4 5
11 11 10 9 8 8 8 9 6 6 6 5 4 4 5 3 3 5 4 3 3 2 2 1 1 2 4 4 2 2 3 3 4 5 5 3 4 4 4 5 5 4 4 5
9 12 14 9 7 5 6 11 5 5 6 5 5 8 6 4 5 5 4 4 3 3 2 1 1 3 3 2 2 3 3 3 4 4 4 5 5 4 5 4 4 4 4 4
10 11 11 7 6 5 12 11 5 5 5 5 6 5 4 5 5 5 4 3 2 2 1 2 2 2 2 2 3 3 3 3 4 4 4 4 4 5 6 6 5 5 5 4
9 11 14 5 6 9 7 4 4 5 5 5 4 4 5 6 6 4 4 3 3 2 3 1 1 1 2 3 3 3 3 3 4 5 4 3 4 4 5 5 6 5 6 6
10 10 5 4 5 4 3 4 5 5 5 4 4 5 7 7 6 4 4 3 3 2 3 1 1 1 2 2 2 4 3 4 5 5 4 3 4 5 6 5 5 5 6 7
8 7 6 5 4 3 3 4 5 4 4 4 5 6 6 5 5 4 3 2 3 3 2 2 1 2 2 2 2 4 3 4 5 5 4 4 4 4 6 6 6 6 7 7
8 6 5 4 4 3 4 4 5 4 4 4 4 5 5 5 4 2 2 3 2 2 2 2 1 1 1 2 2 4 4 4 4 4 4 4 3 3 5 6 8 8 8 6
8 5 5 5 3 3 4 5 5 4 4 4 4 4 4 4 4 2 2 2 1 2 2 2 1 2 2 2 2 3 3 4 4 4 4 4 5 4 8 8 9 10 10 9
5 3 3 3 3 3 4 4 4 4 4 4 4 4 4 3 3 3 2 2 1 2 2 1 1 1 1 1 2 3 3 4 3 5 4 4 5 5 6 6 8 8 9 9
3 3 5 4 4 3 4 4 5 4 3 4 4 3 3 3 2 2 2 2 1 1 1 1 1 2 1 1 2 3 4 6 4 4 4 4 4 4 4 4 4 4 7 8
3 3 3 3 3 3 4 4 5 4 4 4 3 3 2 3 2 2 2 1 2 2 2 2 2 2 1 2 3 4 4 4 3 3 3 4 4 3 4 3 3 4 3 5
3 3 3 4 4 4 4 4 5 5 4 4 4 3 3 2 2 2 2 2 3 3 2 2 2 2 2 2 3 4 4 6 6 3 3 3 3 3 4 3 4 4 4 4
4 5 4 4 4 4 4 4 4 4 4 4 4 3 2 2 2 2 2 2 2 3 3 3 3 2 2 3 3 4 4 4 9 3 3 3 3 3 3 3 3 4 4 5
2 2 3 3 4 4 4 4 5 5 4 4 3 3 3 3 3 3 2 3 3 3 3 3 3 3 3 3 3 3 3 4 3 3 3 3 3 3 3 2 3 3 4 5
3 3 3 3 4 4 4 5 6 5 4 3 3 3 3 3 3 3 3 3 4 4 4 3 7 5 4 5 5 2 4 4 4 4 4 6 3 3 3 3 3 3 5 5
3 4 4 4 4 4 5 5 6 5 4 4 3 3 4 3 3 3 3 3 3 3 3 3 3 4 4 5 8 3 4 4 4 4 5 4 4 4 4 6 3 3 3 3
5 5 5 4 4 5 5 5 5 5 4 4 4 3 3 3 3 3 3 4 3 3 3 5 4 3 4 5 5 4 5 4 4 4 4 5 5 5 4 4 4 4 4 5
5 5 5 4 5 5 5 4 5 5 5 4 4 3 4 3 3 3 2 3 3 12 4 3 4 9 6 11 4 5 5 5 4 4 4 5 5 5 4 4 5 5 5 5
4 4 4 4 5 5 4 5 5 5 5 4 4 3 3 3 2 3 4 2 2 7 2 3 10 12 12 4 4 4 4 6 5 5 4 5 5 5 5 5 5 5 6 6
5 5 4 4 5 5 5 5 5 5 4 3 3 3 3 3 3 2 3 9 12 8 4 5 8 12 13 3 3 3 4 5 5 4 3 8 4 5 4 5 5 5 6 6
5 5 4 6 5 5 4 4 5 6 5 3 3 3 4 3 3 3 2 3 12 8 3 13 12 11 4 3 3 4 3 4 5 6 5 4 4 5 5 5 5 5 5 4
4 5 5 5 5 4 4 4 5 4 5 5 5 4 4 3 4 3 2 6 3 7 3 3 3 3 3 3 4 4 4 5 6 6 7 6 5 4 5 6 6 5 4 5
4 7 5 5 4 4 4 4 4 5 6 5 5 4 3 3 3 5 7 3 2 3 2 2 3 5 4 4 4 4 4 5 9 7 7 7 6 6 4 6 6 5 5 4

GFSNGP_con_lsi_345.txt.gz
Lid_Strength_Index
7 7 7 7 8 8 9 8 10 9 9 8 6 6 5 4 4 4 3 3 3 3 3 2 2 2 1 2 2 0 1 1 2 1 1 2 2 3 3 4 4 5 5 5
8 7 7 8 8 8 8 8 8 8 9 5 4 4 4 4 4 4 4 3 3 3 2 2 2 2 1 3 2 1 1 2 2 4 3 3 3 3 4 4 4 3 4 5
10 8 8 11 9 8 8 7 7 9 7 5 5 5 5 5 4 4 4 4 4 3 2 2 2 1 3 3 1 1 2 4 5 4 3 4 3 3 4 4 3 3 4 4
10 9 13 9 6 6 7 7 6 6 6 5 5 4 4 3 4 4 4 3 3 2 2 2 1 2 3 1 1 2 3 4 4 3 4 3 3 4 4 3 3 3 4 4
11 11 10 8 7 7 8 9 6 6 5 5 4 4 5 3 3 4 4 3 2 2 2 1 1 3 1 2 2 3 4 4 4 4 3 3 4 5 4 4 3 4 3 3
9 11 13 9 6 5 5 11 6 5 5 5 5 7 7 3 4 4 3 3 2 2 2 1 2 1 2 2 3 4 4 4 4 2 3 4 4 4 4 4 5 4 4 4
9 10 10 6 5 4 12 11 5 4 5 5 6 5 4 4 4 4 3 3 2 2 2 1 1 2 2 2 3 3 3 4 3 3 3 3 3 3 3 4 5 5 6 5
8 10 13 5 5 9 7 4 4 4 4 5 4 4 4 4 5 4 3 2 1 2 1 1 1 2 3 3 2 3 3 4 3 3 2 3 3 3 3 4 5 6 5 6
10 10 5 4 5 4 3 4 4 5 4 3 4 5 5 5 4 3 2 2 1 1 2 2 2 2 2 3 2 3 4 4 3 3 3 3 3 4 4 5 6 6 6 6
7 6 6 5 3 3 3 3 4 4 3 3 4 4 5 4 4 3 2 2 1 2 3 3 2 2 2 2 2 3 4 4 3 3 3 2 3 3 4 5 6 6 7 7
7 6 5 4 4 3 3 4 3 4 3 3 4 4 3 4 3 3 2 1 1 2 3 2 1 1 2 2 2 3 3 3 3 3 3 3 3 4 4 4 7 6 7 6
8 5 5 5 3 3 3 4 3 4 4 3 3 3 2 3 3 2 2 1 2 2 2 2 1 1 1 1 3 4 4 3 4 4 3 4 4 3 8 8 9 10 10 8
5 3 3 3 2 3 3 3 3 3 3 3 3 3 2 3 2 3 2 2 3 3 2 1 1 1 1 1 3 4 3 3 4 4 4 4 3 3 4 6 7 9 9 9
3 3 4 3 4 3 3 3 3 3 3 3 3 2 3 2 2 2 2 2 2 2 2 2 2 2 2 2 3 3 3 6 4 3 4 3 3 2 3 3 3 3 7 7
3 2 3 2 3 3 2 3 3 4 3 3 2 2 3 3 2 2 1 2 2 3 3 3 3 3 2 2 3 3 3 4 3 3 3 3 2 2 2 2 4 3 4 6
3 3 3 3 4 3 3 3 3 4 3 3 3 2 2 2 2 2 2 1 2 3 3 3 3 3 2 3 3 3 4 6 5 3 4 3 3 2 2 3 3 3 4 4
4 4 4 4 4 4 3 3 3 3 3 3 3 2 2 2 2 2 2 1 2 2 3 3 3 3 3 2 3 2 3 3 8 3 3 3 3 3 2 2 2 5 5 5
2 2 2 2 3 4 3 3 3 3 3 2 2 3 3 3 3 3 2 2 2 3 3 3 3 3 4 3 3 3 3 3 4 3 3 3 3 3 3 3 3 3 4 4
2 3 2 3 3 3 3 3 3 2 3 2 2 3 3 2 2 2 2 3 3 3 3 2 5 4 3 5 6 3 4 5 4 4 4 6 2 3 4 4 4 4 5 5
3 3 3 3 3 3 3 3 3 3 3 2 3 3 3 3 2 3 2 3 3 3 2 3 2 3 3 4 6 3 4 5 4 4 4 4 4 3 3 7 5 5 5 5
4 4 4 4 3 3 3 4 4 4 4 3 3 3 3 2 2 2 3 4 2 3 2 5 3 2 3 6 5 3 4 4 5 5 5 5 5 4 4 4 4 4 4 4
4 4 4 4 4 4 4 4 3 4 4 4 3 3 3 3 3 2 2 3 2 12 3 2 4 9 6 12 3 4 4 4 4 5 5 5 5 5 5 4 4 4 4 5
4 4 4 4 4 4 4 4 4 4 4 4 4 3 3 2 2 3 4 2 2 7 3 3 10 12 13 4 3 3 3 4 5 4 6 5 5 5 5 5 5 5 4 4
3 3 3 3 4 5 5 4 3 3 3 4 3 3 2 3 3 1 3 8 11 8 4 5 8 11 14 3 3 2 3 3 4 5 5 10 6 5 4 5 5 5 5 5
3 3 3 4 5 5 5 4 3 3 3 3 3 2 2 1 2 2 2 3 11 8 4 13 11 12 4 3 3 4 3 3 4 5 6 6 6 6 6 5 5 5 5 4
3 3 4 4 4 5 5 3 4 3 4 4 3 3 3 2 2 3 2 7 4 7 4 5 3 3 3 3 4 4 4 4 5 5 6 6 7 7 7 5 5 5 5 5
3 6 4 5 4 4 4 4 4 4 3 3 3 3 3 3 3 4 7 3 4 4 4 4 3 5 4 4 4 4 4 4 8 6 5 6 7 7 7 6 5 5 5 5